{"data":{"norad_id":48778,"epoch":"2026-05-25T00:30:26.012160Z","epoch_age_seconds":80023,"freshness":"FRESH","line1":"1 48778U 21045M   26145.02113440  .00000143  00000+0  34451-3 0  9996","line2":"2 48778  87.8999 263.8067 0001703 104.4216 255.7103 13.15547907241335","mean_motion":13.15547907,"eccentricity":0.0001703,"inclination_deg":87.8999,"raan_deg":263.8067,"arg_perigee_deg":104.4216,"mean_anomaly_deg":255.7103,"bstar":0.00034451,"rev_number":24133,"period_min":109.46009585343,"perigee_km":1200.4823786342,"apogee_km":1203.0640960611,"semimajor_km":7579.9102373477,"source":"CELESTRAK","updated_at":"2026-05-25T13:38:22.443692Z"}}